Location: Rochester
(43.1610°N, 77.6109°W)
Time: 12:10:21
(UTC-04:00)

Envisat - Pass Details

Date: 28 July 2021
Orbit: 764 x 766 km, 98.2° (Epoch: 17 September)

Event Time Altitude Azimuth Distance (km) Brightness Sun altitude
Rises 04:54:39 0° 37° (NE) 3,241 8.0 -10.4°
Reaches altitude 10° 04:59:47 10° 82° (E) 2,305 6.5 -9.6°
Maximum altitude 05:00:14 10° 87° (E) 2,296 6.4 -9.6°
Drops below altitude 10° 05:00:41 10° 92° (E) 2,303 6.3 -9.5°
Sets 05:05:46 0° 136° (SE) 3,219 6.3 -8.8°
